Location: Philipsburg
(46.3359°N, 113.2993°W)
Time: 13:28:43
(UTC+00:00)

Envisat - Pass Details

Date: 28 January 2022
Orbit: 764 x 765 km, 98.2° (Epoch: 17 May)

Event Time Altitude Azimuth Distance (km) Brightness Sun altitude
Rises 11:25:05 0° 25° (NNE) 3,241 6.7 -37.2°
Reaches altitude 10° 11:27:53 10° 41° (NE) 2,310 6.0 -36.7°
Maximum altitude 11:31:51 22° 92° (E) 1,609 5.2 -36.0°
Drops below altitude 10° 11:35:47 10° 143° (SE) 2,298 5.7 -35.3°
Sets 11:38:33 0° 158° (SSE) 3,219 6.4 -34.9°
